Location: Sawmill Trailhead
(33.5800°N, 116.4497°W)
Time: 15:22:25
(UTC-07:00)

Amateur Radio Satellites - All Passes

Search period start: 24 July 2016 14:52
Search period end: 25 July 2016 14:52
Location: Sawmill Trailhead, 33.5800°N, 116.4497°W

Satellite Date Start Highest point End Downlink Frequencies (MHz)
Time Altitude Azimuth
Cosmos 2499 24 Jul 15:02:38 15:09:49 29° 84° (E) 15:16:56 435.465 / 435.565
CUSAT 1 24 Jul 15:06:33 15:09:27 48° 82° (E) 15:13:01 437.405
ITUPSAT 1 24 Jul 15:09:57 15:14:44 80° 102° (ESE) 15:19:29 437.325
RS-15 24 Jul 15:19:09 15:30:11 36° 46° (NE) 15:41:01 29.354- 29.394
KKS-1 24 Jul 15:45:07 15:48:20 19° 95° (E) 15:51:32 437.445
AO-7 24 Jul 15:52:21 16:00:41 78° 253° (WSW) 16:09:07 29.400- 29.500
MOZHAYETS 4 24 Jul 15:57:03 16:01:01 29° 97° (E) 16:04:57
HORYU 2 24 Jul 16:03:37 16:06:45 19° 68° (ENE) 16:09:54 437.375
AO-85 24 Jul 16:05:00 16:07:47 14° 312° (NW) 16:10:31 145.980
SWISSCUBE 24 Jul 16:05:42 16:09:23 23° 291° (WNW) 16:13:02 437.505
GONETS M04 24 Jul 16:07:19 16:15:59 79° 277° (W) 16:24:44
BEESAT 24 Jul 16:28:17 16:30:58 15° 294° (WNW) 16:33:38 436.000
STARS 24 Jul 16:31:25 16:35:22 31° 98° (E) 16:39:17 437.465
ITAMSAT 1 24 Jul 16:32:29 16:33:36 11° 268° (W) 16:34:43 435.822/435.867
NOAA 15 24 Jul 16:39:59 16:41:04 11° 62° (ENE) 16:42:09 137.62
DANDE 24 Jul 16:44:16 16:46:07 17° 265° (W) 16:48:05 436.750
Cosmos 2499 24 Jul 16:53:46 17:02:23 55° 280° (W) 17:10:59 435.465 / 435.565
BRITE-PL 24 Jul 16:59:21 17:01:42 15° 69° (ENE) 17:04:01 437.365/2234.400
PHONESAT 2.4 24 Jul 17:07:14 17:09:54 27° 146° (SSE) 17:12:34 2401.200-2431.200
CUBESAT XI-V 24 Jul 17:08:49 17:12:09 20° 95° (E) 17:15:28 437.345
KKS-1 24 Jul 17:20:56 17:24:53 31° 289° (WNW) 17:28:49 437.445
Cubesat XI-IV 24 Jul 17:21:53 17:25:56 22° 67° (ENE) 17:29:59 437.490
SO-50 24 Jul 17:23:35 17:27:28 26° 53° (NE) 17:31:14 436.795
RS-15 24 Jul 17:31:19 17:43:33 69° 247° (WSW) 17:55:29 29.354- 29.394
MOZHAYETS 4 24 Jul 17:34:31 17:37:58 22° 291° (WNW) 17:41:25
LilacSat-2 24 Jul 17:38:31 17:41:34 23° 71° (ENE) 17:44:38 437.200
HORYU 2 24 Jul 17:39:01 17:43:02 32° 262° (W) 17:47:05 437.375
CUTE-I 24 Jul 17:45:29 17:50:23 38° 71° (ENE) 17:55:19 437.470
AO-7 24 Jul 17:52:14 17:54:27 11° 269° (W) 17:56:42 29.400- 29.500
NOAA 18 24 Jul 17:56:34 18:01:52 51° 72° (ENE) 18:07:13 137.9125
STARS 24 Jul 18:08:18 18:11:28 19° 292° (WNW) 18:14:37 437.465
GONETS M04 24 Jul 18:10:59 18:14:10 12° 295° (WNW) 18:17:23
BEESAT 3 24 Jul 18:11:05 18:13:48 18° 110° (ESE) 18:16:32 437.485
GOMX 1 24 Jul 18:14:36 18:18:33 47° 74° (ENE) 18:22:37 467.674
NOAA 15 24 Jul 18:14:51 18:20:06 80° 257° (WSW) 18:25:22 137.62
DOVE 4 24 Jul 18:22:44 18:26:08 24° 70° (ENE) 18:29:39 437.250
HO-68 24 Jul 18:35:42 18:40:33 20° 61° (ENE) 18:45:23 435.675
BRITE-PL 24 Jul 18:36:06 18:39:55 33° 262° (W) 18:43:41 437.365/2234.400
PHONESAT 2.4 24 Jul 18:43:20 18:46:19 45° 340° (NNW) 18:49:18 2401.200-2431.200
CUBESAT XI-V 24 Jul 18:45:27 18:49:32 32° 288° (WNW) 18:53:36 437.345
CINEMA 3 24 Jul 18:55:57 18:58:41 16° 67° (ENE) 19:01:30 145.822/145.860
Cubesat XI-IV 24 Jul 19:00:41 19:05:41 39° 261° (W) 19:10:44 437.490
SO-50 24 Jul 19:04:01 19:07:50 27° 249° (WSW) 19:11:34 436.795
STRAND 1 24 Jul 19:05:45 19:09:29 20° 95° (E) 19:13:11 437.568
LilacSat-2 24 Jul 19:12:58 19:15:46 19° 265° (W) 19:18:34 437.200
PCSat 24 Jul 19:21:04 19:26:12 45° 110° (ESE) 19:31:21 145.827
CANX-2 24 Jul 19:24:23 19:28:08 30° 73° (ENE) 19:31:54 2200.000
CUTE-I 24 Jul 19:26:21 19:30:28 22° 265° (W) 19:34:36 437.470
AAUSAT CUBESAT 2 24 Jul 19:37:31 19:39:33 13° 68° (ENE) 19:41:34 437.432
CUTE 1.7 + AOD 2 24 Jul 19:38:08 19:42:06 38° 74° (ENE) 19:46:05 437.475
NOAA 18 24 Jul 19:39:12 19:42:45 17° 266° (W) 19:46:19 137.9125
BEESAT 2 24 Jul 19:47:40 19:51:32 55° 300° (WNW) 19:55:26 435.950
BEESAT 3 24 Jul 19:47:52 19:51:15 27° 304° (NW) 19:54:40 437.485
RS-15 24 Jul 19:50:16 19:53:41 12° 265° (W) 19:57:05 29.354- 29.394
DOVE 4 24 Jul 20:00:33 20:03:46 21° 265° (W) 20:07:05 437.250
UWE-3 24 Jul 20:05:24 20:08:34 19° 68° (ENE) 20:11:46 435.000/436.395/437.385
ZACube-1 24 Jul 20:13:10 20:15:38 15° 67° (ENE) 20:18:06 437.345
FUNcube-1 24 Jul 20:14:01 20:16:18 14° 67° (ENE) 20:18:36 145.935
YUBILEINY 24 Jul 20:19:39 20:27:08 30° 73° (ENE) 20:34:31 435.215
CUBEBUG 2 24 Jul 20:20:18 20:24:31 41° 73° (ENE) 20:28:54 437.445
HO-68 24 Jul 20:20:23 20:27:31 70° 256° (WSW) 20:34:43 435.675
PHONESAT 2.4 24 Jul 20:20:46 20:23:15 22° 357° (N) 20:25:44 2401.200-2431.200
SEEDS 24 Jul 20:22:12 20:26:27 86° 260° (W) 20:30:41 437.485
CINEMA 3 24 Jul 20:31:22 20:35:26 38° 263° (W) 20:39:42 145.822/145.860
COMPASS 1 24 Jul 20:39:17 20:43:29 78° 260° (W) 20:47:40 437.405
STRAND 1 24 Jul 20:44:01 20:48:42 38° 289° (WNW) 20:53:22 437.568
Oscar 11 24 Jul 20:58:19 21:02:30 49° 74° (ENE) 21:06:42 145.826/435.025
CANX-2 24 Jul 21:01:06 21:04:00 18° 266° (W) 21:06:54 2200.000
PCSat 24 Jul 21:05:39 21:09:46 22° 306° (NW) 21:13:54 145.827
AAUSAT CUBESAT 2 24 Jul 21:10:43 21:14:38 39° 262° (W) 21:18:33 437.432
CUTE 1.7 + AOD 2 24 Jul 21:15:49 21:18:03 14° 267° (W) 21:20:18 437.475
PRISM 24 Jul 21:17:54 21:21:58 69° 101° (ESE) 21:26:03 437.425
O/OREOS (USA 219) 24 Jul 21:19:15 21:23:40 65° 291° (WNW) 21:28:06 437.305
M-CUBED/EXP-1 PRIME 24 Jul 21:22:23 21:25:48 41° 69° (ENE) 21:29:28 437.505
AIST 2 24 Jul 21:24:51 21:28:55 67° 115° (ESE) 21:33:00 435.215
Cosmos 2491 24 Jul 21:35:25 21:43:51 56° 90° (E) 21:52:16 435.465 / 435.565
UWE-3 24 Jul 21:40:38 21:44:43 34° 263° (W) 21:48:54 435.000/436.395/437.385
ISS 24 Jul 21:44:19 21:47:34 80° 134° (SE) 21:50:49 145.825
ZACube-1 24 Jul 21:47:11 21:51:28 44° 261° (W) 21:55:50 437.345
FUNcube-1 24 Jul 21:47:46 21:52:04 47° 261° (W) 21:56:28 145.935
HUMSAT D 24 Jul 21:50:00 21:53:57 37° 73° (ENE) 21:57:56 437.325/437.525
AUBIESAT-1 24 Jul 21:50:38 21:54:15 83° 75° (ENE) 21:58:12 437.475
Cosmos 2504 24 Jul 21:51:23 21:58:44 36° 75° (ENE) 22:05:35 435.465 / 435.565
DELFI C3 24 Jul 21:56:10 22:00:09 78° 258° (WSW) 22:04:09 145.870
PHONESAT 2.4 24 Jul 21:57:30 22:00:17 30° 14° (NNE) 22:03:03 2401.200-2431.200
CUBEBUG 2 24 Jul 21:58:45 22:01:18 15° 268° (W) 22:03:54 437.445
ANTELSAT 24 Jul 22:13:51 22:17:22 21° 95° (E) 22:20:50 437.575/2403.000
YUBILEINY 24 Jul 22:15:43 22:24:09 52° 271° (W) 22:32:32 435.215
Oscar 11 24 Jul 22:37:30 22:38:50 11° 268° (W) 22:40:11 145.826/435.025
TIGRISAT 24 Jul 22:55:29 23:00:05 63° 101° (E) 23:04:34 435.000
AISAT 24 Jul 22:56:33 22:59:46 20° 69° (ENE) 23:03:00 437.250
AO-85 24 Jul 22:58:34 23:01:51 21° 51° (NE) 23:04:57 145.980
DX 1 24 Jul 23:06:05 23:08:59 18° 68° (ENE) 23:11:54 434.975-435.025
AIST 2 24 Jul 23:06:59 23:07:49 10° 312° (NW) 23:08:39 435.215
UNISAT 6 24 Jul 23:10:54 23:15:35 81° 282° (WNW) 23:20:05 437.425
ESTCUBE 1 24 Jul 23:19:03 23:23:30 65° 76° (ENE) 23:27:57 437.505/2401.250
NANOSAT C BR1 24 Jul 23:21:01 23:23:34 15° 94° (E) 23:26:06 145.865
ISS 24 Jul 23:23:03 23:24:21 12° 331° (NNW) 23:25:40 145.825
UKube-1 24 Jul 23:24:19 23:27:39 22° 70° (ENE) 23:31:00 .
DUCHIFAT 1 24 Jul 23:26:26 23:29:12 17° 94° (E) 23:31:57 145.980
HUMSAT D 24 Jul 23:27:13 23:29:40 15° 267° (W) 23:32:07 437.325/437.525
PHONESAT 2.4 24 Jul 23:33:53 23:36:55 57° 209° (SSW) 23:39:56 2401.200-2431.200
Cosmos 2491 24 Jul 23:34:01 23:41:01 27° 288° (WNW) 23:48:05 435.465 / 435.565
QB50P1 24 Jul 23:40:51 23:44:35 29° 97° (E) 23:48:18 145.935-145.965
Cosmos 2504 24 Jul 23:44:47 23:51:58 37° 274° (W) 23:58:43 435.465 / 435.565
POPSAT HIP 1 24 Jul 23:46:54 23:50:49 33° 98° (E) 23:54:40 437.405
VELOX 1 24 Jul 23:47:01 23:51:23 78° 77° (ENE) 23:55:47 145.980
ANTELSAT 24 Jul 23:50:02 23:54:02 29° 289° (WNW) 23:57:57 437.575/2403.000
BUGSAT 1 24 Jul 23:52:28 23:54:44 14° 94° (E) 23:56:59 437.445
CUBEBUG 1 24 Jul 23:55:18 23:59:35 72° 258° (WSW) 00:03:54 437.445
AIST 1 24 Jul 23:59:28 00:01:39 13° 74° (ENE) 00:03:49
50 SAT 25 Jul 00:01:52 00:05:29 56° 260° (W) 00:09:06 437.505
SPROUT 25 Jul 00:01:56 00:06:02 48° 74° (ENE) 00:10:09 437.525
QB50P2 25 Jul 00:06:52 00:11:08 66° 101° (E) 00:15:22 145.880/145.840
POLYITAN 1 25 Jul 00:09:30 00:13:47 68° 101° (E) 00:18:02 437.675
AISAT 25 Jul 00:32:16 00:36:02 28° 263° (W) 00:39:50 437.250
TIGRISAT 25 Jul 00:34:59 00:36:08 11° 295° (WNW) 00:37:17 435.000
AO-85 25 Jul 00:38:41 00:42:16 28° 249° (WSW) 00:45:39 145.980
DX 1 25 Jul 00:41:03 00:44:53 32° 262° (W) 00:48:47 434.975-435.025
NANOSAT C BR1 25 Jul 00:55:29 00:59:22 34° 287° (WNW) 01:03:13 145.865
UKube-1 25 Jul 01:00:02 01:03:33 24° 263° (W) 01:07:04 .
DUCHIFAT 1 25 Jul 01:01:07 01:04:55 32° 288° (WNW) 01:08:42 145.980
TISAT 1 25 Jul 01:06:48 01:10:55 62° 75° (ENE) 01:15:04 437.305
QB50P1 25 Jul 01:17:04 01:20:07 19° 291° (WNW) 01:23:09 145.935-145.965
POPSAT HIP 1 25 Jul 01:23:32 01:26:16 17° 292° (WNW) 01:29:01 437.405
BUGSAT 1 25 Jul 01:26:15 01:30:12 38° 287° (WNW) 01:34:08 437.445
JAS-2 25 Jul 01:27:15 01:32:33 77° 285° (WNW) 01:38:21 435.910
SWISSCUBE 25 Jul 01:30:31 01:34:15 23° 69° (ENE) 01:38:00 437.505
AIST 1 25 Jul 01:35:20 01:39:22 38° 268° (W) 01:43:25
Oscar 19 25 Jul 01:36:57 01:41:40 35° 98° (E) 01:46:21 437.125/150
JUGNU 25 Jul 01:37:42 01:39:51 12° 164° (SSE) 01:41:58 437.505
SPROUT 25 Jul 01:41:05 01:42:12 11° 268° (W) 01:43:19 437.525
BEESAT 25 Jul 01:51:31 01:55:50 35° 71° (ENE) 02:00:10 436.000
ITUPSAT 1 25 Jul 02:12:29 02:17:11 58° 74° (ENE) 02:21:55 437.325
GONETS M04 25 Jul 02:22:47 02:31:04 43° 77° (ENE) 02:39:20
Gurwin Techsat 1B 25 Jul 02:36:38 02:41:53 60° 101° (E) 02:47:07 435.225
KKS-1 25 Jul 02:41:18 02:42:37 11° 65° (ENE) 02:43:58 437.445
Cosmos 2499 25 Jul 02:51:05 02:58:27 43° 77° (ENE) 03:05:18 435.465 / 435.565
MOZHAYETS 4 25 Jul 02:55:40 02:58:50 18° 68° (ENE) 03:02:00
ITAMSAT 1 25 Jul 03:05:50 03:10:32 34° 98° (E) 03:15:12 435.822/435.867
SWISSCUBE 25 Jul 03:07:40 03:11:51 30° 263° (W) 03:16:03 437.505
Oscar 19 25 Jul 03:16:44 03:20:44 23° 292° (WNW) 03:24:45 437.125/150
JUGNU 25 Jul 03:24:01 03:28:09 19° 174° (S) 03:32:17 437.505
STARS 25 Jul 03:25:03 03:27:55 17° 68° (ENE) 03:30:48 437.465
BEESAT 25 Jul 03:30:12 03:33:38 20° 265° (W) 03:37:06 436.000
SRMSAT 25 Jul 03:50:05 03:51:52 11° 164° (SSE) 03:53:37 437.500
ITUPSAT 1 25 Jul 03:53:45 03:55:19 11° 268° (W) 03:56:53 437.325
AO-7 25 Jul 03:58:48 04:06:46 47° 101° (ESE) 04:14:40 29.400- 29.500
DANDE 25 Jul 04:03:53 04:09:38 35° 96° (E) 04:14:08 436.750
CUSAT 1 25 Jul 04:05:14 04:10:11 87° 277° (W) 04:13:55 437.405
BEESAT 3 25 Jul 04:08:09 04:11:57 42° 58° (ENE) 04:15:42 437.485
CUBESAT XI-V 25 Jul 04:09:41 04:11:42 13° 66° (ENE) 04:13:42 437.345
BEESAT 2 25 Jul 04:09:45 04:13:00 23° 54° (NE) 04:16:14 435.950
PCSat 25 Jul 04:13:57 04:17:28 17° 52° (NE) 04:20:57 145.827
KKS-1 25 Jul 04:14:19 04:18:39 56° 259° (W) 04:23:02 437.445
ISS 25 Jul 04:15:54 04:18:01 16° 32° (NNE) 04:20:09 145.825
Gurwin Techsat 1B 25 Jul 04:18:26 04:21:16 15° 296° (WNW) 04:24:06 435.225
GONETS M04 25 Jul 04:19:55 04:27:36 35° 274° (W) 04:35:18
MOZHAYETS 4 25 Jul 04:31:26 04:35:41 36° 262° (W) 04:39:57
Cosmos 2499 25 Jul 04:44:49 04:51:08 28° 275° (W) 04:57:07 435.465 / 435.565
ITAMSAT 1 25 Jul 04:45:43 04:49:46 23° 292° (WNW) 04:53:47 435.822/435.867
STARS 25 Jul 05:00:00 05:03:58 34° 262° (W) 05:07:59 437.465
JUGNU 25 Jul 05:12:17 05:16:31 20° 184° (S) 05:20:46 437.505
HORYU 2 25 Jul 05:33:22 05:37:49 63° 101° (ESE) 05:42:13 437.375
SRMSAT 25 Jul 05:36:15 05:40:19 19° 173° (S) 05:44:22 437.500
RS-15 25 Jul 05:39:23 05:48:16 28° 102° (ESE) 05:57:25 29.354- 29.394
CUBESAT XI-V 25 Jul 05:44:05 05:48:35 52° 260° (W) 05:53:06 437.345
Cubesat XI-IV 25 Jul 05:45:02 05:46:29 11° 92° (E) 05:47:57 437.490
DANDE 25 Jul 05:47:25 05:52:14 23° 280° (W) 05:56:11 436.750
BEESAT 2 25 Jul 05:47:32 05:50:43 23° 249° (WSW) 05:53:53 435.950
BEESAT 3 25 Jul 05:47:45 05:49:11 12° 252° (WSW) 05:50:37 437.485
AIST 2 25 Jul 05:51:10 05:53:31 14° 50° (NE) 05:55:51 435.215
ISS 25 Jul 05:51:29 05:54:37 45° 227° (SW) 05:57:44 145.825
AO-7 25 Jul 05:51:58 05:59:12 35° 298° (WNW) 06:06:26 29.400- 29.500
PCSat 25 Jul 05:55:54 06:01:15 60° 248° (WSW) 06:06:32 145.827
O/OREOS (USA 219) 25 Jul 05:57:17 05:57:47 10° 57° (ENE) 05:58:17 437.305
CUTE-I 25 Jul 06:07:16 06:11:12 21° 95° (E) 06:15:06 437.470
STRAND 1 25 Jul 06:17:58 06:21:41 20° 67° (ENE) 06:25:24 437.568
GOMX 1 25 Jul 06:19:39 06:23:43 23° 96° (E) 06:27:56 467.674
NOAA 18 25 Jul 06:23:06 06:27:55 30° 98° (E) 06:32:41 137.9125
DOVE 4 25 Jul 06:26:32 06:28:22 12° 92° (E) 06:30:12 437.250
NOAA 15 25 Jul 06:34:06 06:39:15 54° 101° (E) 06:44:23 137.62
BRITE-PL 25 Jul 06:42:48 06:47:40 89° 275° (W) 06:52:55 437.365/2234.400
LilacSat-2 25 Jul 06:49:06 06:52:55 59° 100° (E) 06:56:42 437.200
JUGNU 25 Jul 07:01:55 07:04:51 14° 194° (SSW) 07:07:46 437.505
HORYU 2 25 Jul 07:13:23 07:13:47 10° 296° (WNW) 07:14:10 437.375
Cubesat XI-IV 25 Jul 07:21:39 07:26:59 71° 286° (WNW) 07:32:16 437.490
SRMSAT 25 Jul 07:24:34 07:28:50 21° 183° (S) 07:33:06 437.500
AIST 2 25 Jul 07:28:13 07:32:13 46° 246° (WSW) 07:36:12 435.215
O/OREOS (USA 219) 25 Jul 07:33:07 07:37:37 67° 253° (WSW) 07:42:08 437.305
SO-50 25 Jul 07:34:01 07:37:45 22° 110° (ESE) 07:41:29 436.795
CUTE-I 25 Jul 07:46:22 07:51:19 40° 289° (WNW) 07:56:14 437.470
RS-15 25 Jul 07:48:10 07:59:29 71° 301° (WNW) 08:11:32 29.354- 29.394
Cosmos 2491 25 Jul 07:51:53 07:58:17 22° 70° (ENE) 08:04:40 435.465 / 435.565
HO-68 25 Jul 07:53:14 07:59:18 29° 97° (E) 08:05:19 435.675
STRAND 1 25 Jul 07:55:43 08:00:32 40° 261° (W) 08:05:22 437.568
GOMX 1 25 Jul 07:57:11 08:01:44 35° 287° (WNW) 08:06:30 467.674
DOVE 4 25 Jul 08:01:13 08:06:20 68° 284° (WNW) 08:11:35 437.250
NOAA 18 25 Jul 08:03:42 08:08:27 30° 292° (WNW) 08:13:10 137.9125
PRISM 25 Jul 08:03:43 08:07:10 27° 71° (ENE) 08:10:39 437.425
SEEDS 25 Jul 08:10:55 08:14:02 20° 95° (E) 08:17:08 437.485
NOAA 15 25 Jul 08:15:26 08:18:32 16° 295° (WNW) 08:21:39 137.62
CUBEBUG 2 25 Jul 08:17:08 08:19:11 13° 92° (E) 08:21:13 437.445
COMPASS 1 25 Jul 08:26:50 08:30:00 21° 95° (E) 08:33:10 437.405
CINEMA 3 25 Jul 08:29:17 08:34:19 70° 101° (E) 08:39:16 145.822/145.860
CANX-2 25 Jul 08:48:30 08:52:43 75° 283° (WNW) 08:56:54 2200.000
Oscar 11 25 Jul 08:51:36 08:53:15 12° 92° (E) 08:54:55 145.826/435.025
AAUSAT CUBESAT 2 25 Jul 08:56:49 09:00:40 39° 98° (E) 09:04:30 437.432
CUTE 1.7 + AOD 2 25 Jul 09:02:26 09:06:35 58° 284° (WNW) 09:10:41 437.475
ANTELSAT 25 Jul 09:10:07 09:12:06 13° 65° (ENE) 09:14:05 437.575/2403.000
SO-50 25 Jul 09:13:31 09:18:00 36° 304° (NW) 09:22:29 436.795
SRMSAT 25 Jul 09:14:14 09:17:19 14° 193° (SSW) 09:20:24 437.500
YUBILEINY 25 Jul 09:15:15 09:23:07 39° 87° (E) 09:31:01 435.215
UWE-3 25 Jul 09:33:54 09:38:30 67° 100° (E) 09:42:57 435.000/436.395/437.385
DELFI C3 25 Jul 09:38:46 09:41:24 17° 95° (E) 09:44:01 145.870
ZACube-1 25 Jul 09:39:33 09:43:55 47° 99° (E) 09:48:08 437.345
PRISM 25 Jul 09:39:42 09:42:27 18° 264° (W) 09:45:13 437.425
FUNcube-1 25 Jul 09:39:53 09:44:11 44° 99° (E) 09:48:21 145.935
HO-68 25 Jul 09:40:19 09:47:05 46° 292° (WNW) 09:53:49 435.675
SEEDS 25 Jul 09:46:16 09:49:39 25° 289° (WNW) 09:53:02 437.485
Cosmos 2491 25 Jul 09:47:05 09:55:44 68° 268° (W) 10:04:24 435.465 / 435.565
TIGRISAT 25 Jul 09:50:00 09:54:06 33° 72° (ENE) 09:58:16 435.000
CUBEBUG 2 25 Jul 09:51:29 09:56:03 50° 286° (WNW) 10:00:30 437.445
COMPASS 1 25 Jul 10:02:11 10:05:28 23° 289° (WNW) 10:08:43 437.405
UNISAT 6 25 Jul 10:05:13 10:09:40 54° 75° (ENE) 10:14:14 437.425
RS-15 25 Jul 10:06:23 10:14:39 21° 328° (NNW) 10:23:14 29.354- 29.394
CINEMA 3 25 Jul 10:09:05 10:10:46 12° 295° (WNW) 10:12:28 145.822/145.860
Cosmos 2504 25 Jul 10:23:17 10:31:01 36° 86° (E) 10:38:51 435.465 / 435.565
Oscar 11 25 Jul 10:25:28 10:29:34 44° 286° (WNW) 10:33:39 145.826/435.025
QB50P1 25 Jul 10:30:53 10:32:58 14° 67° (ENE) 10:35:03 145.935-145.965
AAUSAT CUBESAT 2 25 Jul 10:33:50 10:35:46 13° 292° (WNW) 10:37:42 437.432
POPSAT HIP 1 25 Jul 10:36:37 10:39:09 16° 68° (ENE) 10:41:41 437.405
M-CUBED/EXP-1 PRIME 25 Jul 10:38:47 10:43:29 71° 106° (ESE) 10:48:08 437.505
ANTELSAT 25 Jul 10:43:47 10:48:15 54° 260° (W) 10:52:51 437.575/2403.000
QB50P2 25 Jul 10:55:44 10:59:23 28° 72° (ENE) 11:03:03 145.880/145.840
POLYITAN 1 25 Jul 10:58:21 11:02:01 29° 72° (ENE) 11:05:43 437.675
AUBIESAT-1 25 Jul 11:06:49 11:11:26 69° 289° (WNW) 11:16:01 437.475
YUBILEINY 25 Jul 11:11:43 11:19:44 39° 284° (WNW) 11:27:51 435.215
HUMSAT D 25 Jul 11:12:38 11:16:47 65° 285° (WNW) 11:20:52 437.325/437.525
DELFI C3 25 Jul 11:12:55 11:16:12 26° 288° (WNW) 11:19:28 145.870
ESTCUBE 1 25 Jul 11:16:32 11:19:39 18° 95° (E) 11:22:46 437.505/2401.250
ZACube-1 25 Jul 11:17:37 11:19:42 13° 294° (WNW) 11:21:45 437.345
FUNcube-1 25 Jul 11:17:41 11:19:58 14° 293° (WNW) 11:22:12 145.935
TIGRISAT 25 Jul 11:27:34 11:30:48 19° 266° (W) 11:34:06 435.000
50 SAT 25 Jul 11:35:42 11:37:44 14° 95° (E) 11:39:46 437.505
JAS-2 25 Jul 11:36:01 11:41:13 28° 70° (ENE) 11:45:57 435.910
VELOX 1 25 Jul 11:41:55 11:45:11 20° 96° (E) 11:48:26 145.980
NANOSAT C BR1 25 Jul 11:42:51 11:47:04 83° 260° (W) 11:51:20 145.865
UNISAT 6 25 Jul 11:45:05 11:46:40 12° 268° (W) 11:48:16 437.425
CUBEBUG 1 25 Jul 11:48:09 11:51:56 28° 97° (E) 11:55:43 437.445
DUCHIFAT 1 25 Jul 11:48:11 11:52:23 77° 259° (W) 11:56:38 145.980
SPROUT 25 Jul 11:54:08 11:55:32 11° 92° (E) 11:56:56 437.525
QB50P1 25 Jul 12:04:20 12:08:19 41° 261° (W) 12:12:22 145.935-145.965
POPSAT HIP 1 25 Jul 12:10:43 12:14:36 35° 262° (W) 12:18:31 437.405
BUGSAT 1 25 Jul 12:11:25 12:15:27 83° 78° (ENE) 12:19:35 437.445
M-CUBED/EXP-1 PRIME 25 Jul 12:15:49 12:17:22 12° 300° (WNW) 12:18:55 437.505
Cosmos 2504 25 Jul 12:15:53 12:24:07 44° 283° (WNW) 12:32:30 435.465 / 435.565
AISAT 25 Jul 12:25:32 12:29:59 72° 101° (E) 12:34:26 437.250
RS-15 25 Jul 12:30:31 12:34:30 12° 5° (N) 12:38:29 29.354- 29.394
QB50P2 25 Jul 12:32:10 12:35:09 19° 265° (W) 12:38:10 145.880/145.840
DX 1 25 Jul 12:32:33 12:36:51 57° 101° (E) 12:41:10 434.975-435.025
POLYITAN 1 25 Jul 12:34:51 12:37:48 18° 265° (W) 12:40:46 437.675
Oscar 19 25 Jul 12:49:59 12:54:32 34° 71° (ENE) 12:59:06 437.125/150
UKube-1 25 Jul 12:50:04 12:54:24 72° 102° (ESE) 12:58:42 .
ESTCUBE 1 25 Jul 12:52:30 12:56:28 32° 288° (WNW) 13:00:26 437.505/2401.250
TISAT 1 25 Jul 12:56:23 12:58:27 13° 94° (E) 13:00:30 437.305
AO-85 25 Jul 13:08:04 13:12:11 23° 110° (ESE) 13:16:15 145.980
50 SAT 25 Jul 13:08:23 13:11:21 24° 288° (WNW) 13:14:17 437.505
VELOX 1 25 Jul 13:17:46 13:21:37 29° 289° (WNW) 13:25:27 145.980
JAS-2 25 Jul 13:20:24 13:26:08 35° 261° (W) 13:31:21 435.910
CUBEBUG 1 25 Jul 13:24:43 13:28:01 21° 291° (WNW) 13:31:20 437.445
SPROUT 25 Jul 13:27:32 13:31:40 47° 286° (WNW) 13:35:49 437.525
Gurwin Techsat 1B 25 Jul 13:53:36 13:58:50 64° 75° (ENE) 14:04:06 435.225
BEESAT 25 Jul 13:57:41 13:59:25 12° 93° (E) 14:01:07 436.000
AIST 1 25 Jul 14:00:03 14:04:12 53° 279° (W) 14:08:22
DX 1 25 Jul 14:11:28 14:12:30 11° 295° (WNW) 14:13:34 434.975-435.025
ITUPSAT 1 25 Jul 14:17:53 14:21:25 20° 95° (E) 14:24:55 437.325
ITAMSAT 1 25 Jul 14:19:49 14:24:32 36° 71° (ENE) 14:29:17 435.822/435.867
Oscar 19 25 Jul 14:29:52 14:33:51 23° 264° (W) 14:37:51 437.125/150
TISAT 1 25 Jul 14:30:14 14:34:13 40° 287° (WNW) 14:38:11 437.305
CUSAT 1 25 Jul 14:41:48 14:44:28 27° 82° (E) 14:47:41 437.405
